Year,Month,Day,Hour,Minute,Value (Times are PST for temperature in C)
2016,03,18,00,00,2.80
2016,03,18,00,01,2.80
2016,03,18,00,02,2.80
2016,03,18,00,03,2.80
2016,03,18,00,04,2.80
2016,03,18,00,05,2.80
2016,03,18,00,06,2.80
2016,03,18,00,07,2.80
2016,03,18,00,08,2.80
2016,03,18,00,09,2.90
2016,03,18,00,10,2.90
2016,03,18,00,11,3.00
2016,03,18,00,12,3.00
2016,03,18,00,13,3.10
2016,03,18,00,14,3.10
2016,03,18,00,15,3.10
2016,03,18,00,16,3.10
2016,03,18,00,17,3.10
2016,03,18,00,18,3.10
2016,03,18,00,19,3.00
2016,03,18,00,20,3.00
2016,03,18,00,21,2.90
2016,03,18,00,22,2.90
2016,03,18,00,23,2.90
2016,03,18,00,24,2.90
2016,03,18,00,25,2.90
2016,03,18,00,26,2.80
2016,03,18,00,27,2.80
2016,03,18,00,28,2.80
2016,03,18,00,29,2.80
2016,03,18,00,30,2.80
2016,03,18,00,31,2.80
2016,03,18,00,32,2.80
2016,03,18,00,33,2.80
2016,03,18,00,34,2.80
2016,03,18,00,35,2.80
2016,03,18,00,36,2.80
2016,03,18,00,37,2.90
2016,03,18,00,38,2.90
2016,03,18,00,39,2.90
2016,03,18,00,40,2.90
2016,03,18,00,41,2.90
2016,03,18,00,42,2.90
2016,03,18,00,43,2.80
2016,03,18,00,44,2.80
2016,03,18,00,45,2.70
2016,03,18,00,46,2.70
2016,03,18,00,47,2.70
2016,03,18,00,48,2.70
2016,03,18,00,49,2.70
2016,03,18,00,50,2.70
2016,03,18,00,51,2.60
2016,03,18,00,52,2.60
2016,03,18,00,53,2.50
2016,03,18,00,54,2.50
2016,03,18,00,55,2.40
2016,03,18,00,56,2.30
2016,03,18,00,57,2.30
2016,03,18,00,58,2.30
2016,03,18,00,59,2.30
2016,03,18,01,00,2.30
2016,03,18,01,01,2.30
2016,03,18,01,02,2.40
2016,03,18,01,03,2.40
2016,03,18,01,04,2.50
2016,03,18,01,05,2.60
2016,03,18,01,06,2.60
2016,03,18,01,07,2.70
2016,03,18,01,08,2.70
2016,03,18,01,09,2.80
2016,03,18,01,10,2.80
2016,03,18,01,11,2.80
2016,03,18,01,12,2.80
2016,03,18,01,13,2.80
2016,03,18,01,14,2.80
2016,03,18,01,15,2.80
2016,03,18,01,16,2.70
2016,03,18,01,17,2.70
2016,03,18,01,18,2.60
2016,03,18,01,19,2.60
2016,03,18,01,20,2.60
2016,03,18,01,21,2.60
2016,03,18,01,22,2.60
2016,03,18,01,23,2.50
2016,03,18,01,24,2.50
2016,03,18,01,25,2.50
2016,03,18,01,26,2.40
2016,03,18,01,27,2.40
2016,03,18,01,28,2.40
2016,03,18,01,29,2.40
2016,03,18,01,30,2.40
2016,03,18,01,31,2.50
2016,03,18,01,32,2.50
2016,03,18,01,33,2.60
2016,03,18,01,34,2.60
2016,03,18,01,35,2.70
2016,03,18,01,36,2.70
2016,03,18,01,37,2.70
2016,03,18,01,38,2.70
2016,03,18,01,39,2.80
2016,03,18,01,40,2.80
2016,03,18,01,41,2.80
2016,03,18,01,42,2.80
2016,03,18,01,43,2.80
2016,03,18,01,44,2.80
2016,03,18,01,45,2.80
2016,03,18,01,46,2.80
2016,03,18,01,47,2.80
2016,03,18,01,48,2.80
2016,03,18,01,49,2.70
2016,03,18,01,50,2.70
2016,03,18,01,51,2.70
2016,03,18,01,52,2.70
2016,03,18,01,53,2.60
2016,03,18,01,54,2.60
2016,03,18,01,55,2.60
2016,03,18,01,56,2.60
2016,03,18,01,57,2.60
2016,03,18,01,58,2.60
2016,03,18,01,59,2.60
2016,03,18,02,00,2.60
2016,03,18,02,01,2.60
2016,03,18,02,02,2.60
2016,03,18,02,03,2.60
2016,03,18,02,04,2.60
2016,03,18,02,05,2.60
2016,03,18,02,06,2.60
2016,03,18,02,07,2.60
2016,03,18,02,08,2.60
2016,03,18,02,09,2.60
2016,03,18,02,10,2.60
2016,03,18,02,11,2.60
2016,03,18,02,12,2.60
2016,03,18,02,13,2.60
2016,03,18,02,14,2.70
2016,03,18,02,15,2.60
2016,03,18,02,16,2.60
2016,03,18,02,17,2.60
2016,03,18,02,18,2.60
2016,03,18,02,19,2.60
2016,03,18,02,20,2.60
2016,03,18,02,21,2.60
2016,03,18,02,22,2.60
2016,03,18,02,23,2.60
2016,03,18,02,24,2.60
2016,03,18,02,25,2.60
2016,03,18,02,26,2.60
2016,03,18,02,27,2.60
2016,03,18,02,28,2.60
2016,03,18,02,29,2.50
2016,03,18,02,30,2.50
2016,03,18,02,31,2.40
2016,03,18,02,32,2.40
2016,03,18,02,33,2.40
2016,03,18,02,34,2.40
2016,03,18,02,35,2.40
2016,03,18,02,36,2.40
2016,03,18,02,37,2.40
2016,03,18,02,38,2.50
2016,03,18,02,39,2.50
2016,03,18,02,40,2.60
2016,03,18,02,41,2.60
2016,03,18,02,42,2.60
2016,03,18,02,43,2.70
2016,03,18,02,44,2.70
2016,03,18,02,45,2.80
2016,03,18,02,46,2.80
2016,03,18,02,47,2.90
2016,03,18,02,48,2.90
2016,03,18,02,49,2.90
2016,03,18,02,50,2.90
2016,03,18,02,51,2.90
2016,03,18,02,52,2.90
2016,03,18,02,53,2.90
2016,03,18,02,54,2.90
2016,03,18,02,55,2.90
2016,03,18,02,56,2.90
2016,03,18,02,57,2.90
2016,03,18,02,58,2.90
2016,03,18,02,59,2.90
2016,03,18,03,00,2.90
2016,03,18,03,01,2.90
2016,03,18,03,02,2.90
2016,03,18,03,03,2.90
2016,03,18,03,04,2.80
2016,03,18,03,05,2.80
2016,03,18,03,06,2.80
2016,03,18,03,07,2.80
2016,03,18,03,08,2.80
2016,03,18,03,09,2.80
2016,03,18,03,10,2.70
2016,03,18,03,11,2.70
2016,03,18,03,12,2.70
2016,03,18,03,13,2.70
2016,03,18,03,14,2.70
2016,03,18,03,15,2.70
2016,03,18,03,16,2.80
2016,03,18,03,17,2.80
2016,03,18,03,18,2.80
2016,03,18,03,19,2.70
2016,03,18,03,20,2.70
2016,03,18,03,21,2.70
2016,03,18,03,22,2.70
2016,03,18,03,23,2.70
2016,03,18,03,24,2.60
2016,03,18,03,25,2.60
2016,03,18,03,26,2.60
2016,03,18,03,27,2.60
2016,03,18,03,28,2.60
2016,03,18,03,29,2.60
2016,03,18,03,30,2.60
2016,03,18,03,31,2.60
2016,03,18,03,32,2.60
2016,03,18,03,33,2.60
2016,03,18,03,34,2.70
2016,03,18,03,35,2.70
2016,03,18,03,36,2.70
2016,03,18,03,37,2.70
2016,03,18,03,38,2.70
2016,03,18,03,39,2.70
2016,03,18,03,40,2.70
2016,03,18,03,41,2.70
2016,03,18,03,42,2.70
2016,03,18,03,43,2.70
2016,03,18,03,44,2.70
2016,03,18,03,45,2.70
2016,03,18,03,46,2.60
2016,03,18,03,47,2.60
2016,03,18,03,48,2.60
2016,03,18,03,49,2.50
2016,03,18,03,50,2.50
2016,03,18,03,51,2.40
2016,03,18,03,52,2.40
2016,03,18,03,53,2.50
2016,03,18,03,54,2.50
2016,03,18,03,55,2.50
2016,03,18,03,56,2.50
2016,03,18,03,57,2.50
2016,03,18,03,58,2.50
2016,03,18,03,59,2.60
2016,03,18,04,00,2.60
2016,03,18,04,01,2.60
2016,03,18,04,02,2.60
2016,03,18,04,03,2.70
2016,03,18,04,04,2.70
2016,03,18,04,05,2.70
2016,03,18,04,06,2.70
2016,03,18,04,07,2.70
2016,03,18,04,08,2.80
2016,03,18,04,09,2.80
2016,03,18,04,10,2.80
2016,03,18,04,11,2.80
2016,03,18,04,12,2.80
2016,03,18,04,13,2.80
2016,03,18,04,14,2.80
2016,03,18,04,15,2.80
2016,03,18,04,16,2.80
2016,03,18,04,17,2.80
2016,03,18,04,18,2.90
2016,03,18,04,19,2.90
2016,03,18,04,20,2.90
2016,03,18,04,21,2.90
2016,03,18,04,22,2.90
2016,03,18,04,23,2.90
2016,03,18,04,24,2.90
2016,03,18,04,25,2.90
2016,03,18,04,26,2.90
2016,03,18,04,27,2.90
2016,03,18,04,28,2.80
2016,03,18,04,29,2.80
2016,03,18,04,30,2.80
2016,03,18,04,31,2.80
2016,03,18,04,32,2.80
2016,03,18,04,33,2.80
2016,03,18,04,34,2.80
2016,03,18,04,35,2.80
2016,03,18,04,36,2.80
2016,03,18,04,37,2.80
2016,03,18,04,38,2.80
2016,03,18,04,39,2.80
2016,03,18,04,40,2.80
2016,03,18,04,41,2.80
2016,03,18,04,42,2.80
2016,03,18,04,43,2.70
2016,03,18,04,44,2.70
2016,03,18,04,45,2.70
2016,03,18,04,46,2.60
2016,03,18,04,47,2.60
2016,03,18,04,48,2.60
2016,03,18,04,49,2.60
2016,03,18,04,50,2.60
2016,03,18,04,51,2.60
2016,03,18,04,52,2.60
2016,03,18,04,53,2.60
2016,03,18,04,54,2.60
2016,03,18,04,55,2.60
2016,03,18,04,56,2.60
2016,03,18,04,57,2.70
2016,03,18,04,58,2.70
2016,03,18,04,59,2.70
2016,03,18,05,00,2.70
2016,03,18,05,01,2.70
2016,03,18,05,02,2.70
2016,03,18,05,03,2.70
2016,03,18,05,04,2.70
2016,03,18,05,05,2.70
2016,03,18,05,06,2.70
2016,03,18,05,07,2.70
2016,03,18,05,08,2.70
2016,03,18,05,09,2.70
2016,03,18,05,10,2.70
2016,03,18,05,11,2.70
2016,03,18,05,12,2.80
2016,03,18,05,13,2.80
2016,03,18,05,14,2.80
2016,03,18,05,15,2.80
2016,03,18,05,16,2.80
2016,03,18,05,17,2.80
2016,03,18,05,18,2.70
2016,03,18,05,19,2.70
2016,03,18,05,20,2.60
2016,03,18,05,21,2.60
2016,03,18,05,22,2.50
2016,03,18,05,23,2.40
2016,03,18,05,24,2.40
2016,03,18,05,25,2.30
2016,03,18,05,26,2.30
2016,03,18,05,27,2.20
2016,03,18,05,28,2.20
2016,03,18,05,29,2.20
2016,03,18,05,30,2.20
2016,03,18,05,31,2.10
2016,03,18,05,32,2.10
2016,03,18,05,33,2.10
2016,03,18,05,34,2.10
2016,03,18,05,35,2.10
2016,03,18,05,36,2.10
2016,03,18,05,37,2.10
2016,03,18,05,38,2.10
2016,03,18,05,39,2.20
2016,03,18,05,40,2.20
2016,03,18,05,41,2.20
2016,03,18,05,42,2.20
2016,03,18,05,43,2.20
2016,03,18,05,44,2.20
2016,03,18,05,45,2.20
2016,03,18,05,46,2.10
2016,03,18,05,47,2.10
2016,03,18,05,48,2.20
2016,03,18,05,49,2.20
2016,03,18,05,50,2.10
2016,03,18,05,51,2.10
2016,03,18,05,52,2.10
2016,03,18,05,53,2.10
2016,03,18,05,54,2.10
2016,03,18,05,55,2.00
2016,03,18,05,56,1.90
2016,03,18,05,57,1.90
2016,03,18,05,58,1.90
2016,03,18,05,59,1.90
2016,03,18,06,00,2.00
2016,03,18,06,01,2.10
2016,03,18,06,02,2.20
2016,03,18,06,03,2.20
2016,03,18,06,04,2.30
2016,03,18,06,05,2.30
2016,03,18,06,06,2.30
2016,03,18,06,07,2.30
2016,03,18,06,08,2.30
2016,03,18,06,09,2.30
2016,03,18,06,10,2.30
2016,03,18,06,11,2.30
2016,03,18,06,12,2.30
2016,03,18,06,13,2.30
2016,03,18,06,14,2.40
2016,03,18,06,15,2.50
2016,03,18,06,16,2.60
2016,03,18,06,17,2.60
2016,03,18,06,18,2.50
2016,03,18,06,19,2.50
2016,03,18,06,20,2.40
2016,03,18,06,21,2.40
2016,03,18,06,22,2.40
2016,03,18,06,23,2.30
2016,03,18,06,24,2.30
2016,03,18,06,25,2.20
2016,03,18,06,26,2.20
2016,03,18,06,27,2.20
2016,03,18,06,28,2.10
2016,03,18,06,29,2.00
2016,03,18,06,30,2.00
2016,03,18,06,31,1.90
2016,03,18,06,32,1.80
2016,03,18,06,33,1.80
2016,03,18,06,34,1.80
2016,03,18,06,35,1.80
2016,03,18,06,36,1.80
2016,03,18,06,37,1.90
2016,03,18,06,38,1.90
2016,03,18,06,39,2.00
2016,03,18,06,40,2.00
2016,03,18,06,41,2.00
2016,03,18,06,42,2.00
2016,03,18,06,43,1.90
2016,03,18,06,44,1.90
2016,03,18,06,45,1.90
2016,03,18,06,46,1.90
2016,03,18,06,47,1.80
2016,03,18,06,48,1.80
2016,03,18,06,49,1.80
2016,03,18,06,50,1.70
2016,03,18,06,51,1.60
2016,03,18,06,52,1.60
2016,03,18,06,53,1.60
2016,03,18,06,54,1.60
2016,03,18,06,55,1.60
2016,03,18,06,56,1.60
2016,03,18,06,57,1.60
2016,03,18,06,58,1.50
2016,03,18,06,59,1.50
2016,03,18,07,00,1.50
2016,03,18,07,01,1.50
2016,03,18,07,02,1.60
2016,03,18,07,03,1.60
2016,03,18,07,04,1.70
2016,03,18,07,05,1.70
2016,03,18,07,06,1.60
2016,03,18,07,07,1.60
2016,03,18,07,08,1.60
2016,03,18,07,09,1.50
2016,03,18,07,10,1.50
2016,03,18,07,11,1.40
2016,03,18,07,12,1.40
2016,03,18,07,13,1.40
2016,03,18,07,14,1.40
2016,03,18,07,15,1.40
2016,03,18,07,16,1.40
2016,03,18,07,17,1.50
2016,03,18,07,18,1.40
2016,03,18,07,19,1.40
2016,03,18,07,20,1.50
2016,03,18,07,21,1.50
2016,03,18,07,22,1.60
2016,03,18,07,23,1.70
2016,03,18,07,24,1.70
2016,03,18,07,25,1.80
2016,03,18,07,26,1.90
2016,03,18,07,27,2.00
2016,03,18,07,28,2.00
2016,03,18,07,29,2.10
2016,03,18,07,30,2.10
2016,03,18,07,31,2.00
2016,03,18,07,32,2.00
2016,03,18,07,33,2.00
2016,03,18,07,34,2.00
2016,03,18,07,35,2.10
2016,03,18,07,36,2.10
2016,03,18,07,37,2.00
2016,03,18,07,38,2.00
2016,03,18,07,39,1.90
2016,03,18,07,40,1.90
2016,03,18,07,41,1.90
2016,03,18,07,42,1.90
2016,03,18,07,43,1.90
2016,03,18,07,44,1.90
2016,03,18,07,45,1.90
2016,03,18,07,46,1.90
2016,03,18,07,47,1.90
2016,03,18,07,48,1.90
2016,03,18,07,49,2.00
2016,03,18,07,50,2.00
2016,03,18,07,51,2.10
2016,03,18,07,52,2.10
2016,03,18,07,53,2.20
2016,03,18,07,54,2.20
2016,03,18,07,55,2.30
2016,03,18,07,56,2.30
2016,03,18,07,57,2.30
2016,03,18,07,58,2.40
2016,03,18,07,59,2.40
2016,03,18,08,00,2.50
2016,03,18,08,01,2.50
2016,03,18,08,02,2.60
2016,03,18,08,03,2.60
2016,03,18,08,04,2.60
2016,03,18,08,05,2.70
2016,03,18,08,06,2.70
2016,03,18,08,07,2.70
2016,03,18,08,08,2.80
2016,03,18,08,09,2.90
2016,03,18,08,10,3.00
2016,03,18,08,11,3.10
2016,03,18,08,12,3.10
2016,03,18,08,13,3.20
2016,03,18,08,14,3.20
2016,03,18,08,15,3.30
2016,03,18,08,16,3.40
2016,03,18,08,17,3.40
2016,03,18,08,18,3.40
2016,03,18,08,19,3.40
2016,03,18,08,20,3.40
2016,03,18,08,21,3.40
2016,03,18,08,22,3.50
2016,03,18,08,23,3.60
2016,03,18,08,24,3.70
2016,03,18,08,25,3.80
2016,03,18,08,26,3.80
2016,03,18,08,27,3.90
2016,03,18,08,28,3.90
2016,03,18,08,29,3.90
2016,03,18,08,30,4.00
2016,03,18,08,31,4.20
2016,03,18,08,32,4.20
2016,03,18,08,33,4.30
2016,03,18,08,34,4.30
2016,03,18,08,35,4.40
2016,03,18,08,36,4.50
2016,03,18,08,37,4.50
2016,03,18,08,38,4.70
2016,03,18,08,39,4.70
2016,03,18,08,40,4.80
2016,03,18,08,41,4.80
2016,03,18,08,42,4.80
2016,03,18,08,43,4.90
2016,03,18,08,44,4.90
2016,03,18,08,45,5.00
2016,03,18,08,46,5.00
2016,03,18,08,47,5.10
2016,03,18,08,48,5.10
2016,03,18,08,49,5.10
2016,03,18,08,50,5.20
2016,03,18,08,51,5.20
2016,03,18,08,52,5.30
2016,03,18,08,53,5.30
2016,03,18,08,54,5.40
2016,03,18,08,55,5.40
2016,03,18,08,56,5.50
2016,03,18,08,57,5.50
2016,03,18,08,58,5.60
2016,03,18,08,59,5.60
2016,03,18,09,00,5.60
2016,03,18,09,01,5.60
2016,03,18,09,02,5.70
2016,03,18,09,03,5.70
2016,03,18,09,04,5.70
2016,03,18,09,05,5.70
2016,03,18,09,06,5.70
2016,03,18,09,07,5.60
2016,03,18,09,08,5.60
2016,03,18,09,09,5.60
2016,03,18,09,10,5.60
2016,03,18,09,11,5.60
2016,03,18,09,12,5.70
2016,03,18,09,13,5.80
2016,03,18,09,14,5.90
2016,03,18,09,15,6.00
2016,03,18,09,16,6.20
2016,03,18,09,17,6.30
2016,03,18,09,18,6.40
2016,03,18,09,19,6.40
2016,03,18,09,20,6.50
2016,03,18,09,21,6.60
2016,03,18,09,22,6.70
2016,03,18,09,23,6.70
2016,03,18,09,24,6.80
2016,03,18,09,25,6.80
2016,03,18,09,26,6.80
2016,03,18,09,27,6.80
2016,03,18,09,28,6.80
2016,03,18,09,29,6.90
2016,03,18,09,30,6.90
2016,03,18,09,31,6.90
2016,03,18,09,32,6.90
2016,03,18,09,33,6.90
2016,03,18,09,34,6.90
2016,03,18,09,35,6.90
2016,03,18,09,36,6.90
2016,03,18,09,37,7.00
2016,03,18,09,38,7.00
2016,03,18,09,39,7.10
2016,03,18,09,40,7.10
2016,03,18,09,41,7.10
2016,03,18,09,42,7.10
2016,03,18,09,43,7.10
2016,03,18,09,44,7.10
2016,03,18,09,45,7.20
2016,03,18,09,46,7.20
2016,03,18,09,47,7.20
2016,03,18,09,48,7.10
2016,03,18,09,49,7.10
2016,03,18,09,50,7.10
2016,03,18,09,51,7.00
2016,03,18,09,52,7.00
2016,03,18,09,53,6.90
2016,03,18,09,54,6.90
2016,03,18,09,55,6.80
2016,03,18,09,56,6.80
2016,03,18,09,57,6.80
2016,03,18,09,58,6.80
2016,03,18,09,59,6.80
2016,03,18,10,00,6.80
2016,03,18,10,01,6.80
2016,03,18,10,02,6.80
2016,03,18,10,03,6.80
2016,03,18,10,04,6.80
2016,03,18,10,05,6.80
2016,03,18,10,06,6.80
2016,03,18,10,07,6.80
2016,03,18,10,08,6.80
2016,03,18,10,09,6.80
2016,03,18,10,10,6.90
2016,03,18,10,11,6.90
2016,03,18,10,12,6.90
2016,03,18,10,13,6.90
2016,03,18,10,14,7.00
2016,03,18,10,15,7.00
2016,03,18,10,16,7.10
2016,03,18,10,17,7.10
2016,03,18,10,18,7.20
2016,03,18,10,19,7.20
2016,03,18,10,20,7.20
2016,03,18,10,21,7.30
2016,03,18,10,22,7.40
2016,03,18,10,23,7.50
2016,03,18,10,24,7.60
2016,03,18,10,25,7.60
2016,03,18,10,26,7.60
2016,03,18,10,27,7.60
2016,03,18,10,28,7.60
2016,03,18,10,29,7.60
2016,03,18,10,30,7.60
2016,03,18,10,31,7.60
2016,03,18,10,32,7.60
2016,03,18,10,33,7.70
2016,03,18,10,34,7.70
2016,03,18,10,35,7.70
2016,03,18,10,36,7.80
2016,03,18,10,37,7.80
2016,03,18,10,38,7.90
2016,03,18,10,39,7.90
2016,03,18,10,40,7.90
2016,03,18,10,41,8.00
2016,03,18,10,42,8.00
2016,03,18,10,43,8.00
2016,03,18,10,44,8.00
2016,03,18,10,45,8.00
2016,03,18,10,46,8.00
2016,03,18,10,47,8.10
2016,03,18,10,48,8.10
2016,03,18,10,49,8.10
2016,03,18,10,50,8.20
2016,03,18,10,51,8.20
2016,03,18,10,52,8.30
2016,03,18,10,53,8.30
2016,03,18,10,54,8.30
2016,03,18,10,55,8.30
2016,03,18,10,56,8.30
2016,03,18,10,57,8.40
2016,03,18,10,58,8.40
2016,03,18,10,59,8.50
2016,03,18,11,00,8.50
2016,03,18,11,01,8.60
2016,03,18,11,02,8.60
2016,03,18,11,03,8.60
2016,03,18,11,04,8.50
2016,03,18,11,05,8.40
2016,03,18,11,06,8.30
2016,03,18,11,07,8.30
2016,03,18,11,08,8.30
2016,03,18,11,09,8.30
2016,03,18,11,10,8.30
2016,03,18,11,11,8.30
2016,03,18,11,12,8.30
2016,03,18,11,13,8.30
2016,03,18,11,14,8.40
2016,03,18,11,15,8.50
2016,03,18,11,16,8.60
2016,03,18,11,17,8.60
2016,03,18,11,18,8.70
2016,03,18,11,19,8.60
2016,03,18,11,20,8.50
2016,03,18,11,21,8.40
2016,03,18,11,22,8.50
2016,03,18,11,23,8.50
2016,03,18,11,24,8.60
2016,03,18,11,25,8.60
2016,03,18,11,26,8.70
2016,03,18,11,27,8.70
2016,03,18,11,28,8.70
2016,03,18,11,29,8.70
2016,03,18,11,30,8.70
2016,03,18,11,31,8.70
2016,03,18,11,32,8.70
2016,03,18,11,33,8.70
2016,03,18,11,34,8.70
2016,03,18,11,35,8.70
2016,03,18,11,36,8.70
2016,03,18,11,37,8.60
2016,03,18,11,38,8.60
2016,03,18,11,39,8.50
2016,03,18,11,40,8.50
2016,03,18,11,41,8.40
2016,03,18,11,42,8.40
2016,03,18,11,43,8.40
2016,03,18,11,44,8.40
2016,03,18,11,45,8.50
2016,03,18,11,46,8.60
2016,03,18,11,47,8.60
2016,03,18,11,48,8.70
2016,03,18,11,49,8.80
2016,03,18,11,50,8.90
2016,03,18,11,51,8.90
2016,03,18,11,52,9.00
2016,03,18,11,53,9.00
2016,03,18,11,54,9.00
2016,03,18,11,55,9.10
2016,03,18,11,56,9.10
2016,03,18,11,57,9.20
2016,03,18,11,58,9.20
2016,03,18,11,59,9.30
2016,03,18,12,00,9.30
2016,03,18,12,01,9.40
2016,03,18,12,02,9.40
2016,03,18,12,03,9.30
2016,03,18,12,04,9.30
2016,03,18,12,05,9.30
2016,03,18,12,06,9.30
2016,03,18,12,07,9.30
2016,03,18,12,08,9.20
2016,03,18,12,09,9.20
2016,03,18,12,10,9.30
2016,03,18,12,11,9.40
2016,03,18,12,12,9.50
2016,03,18,12,13,9.50
2016,03,18,12,14,9.50
2016,03,18,12,15,9.40
2016,03,18,12,16,9.30
2016,03,18,12,17,9.30
2016,03,18,12,18,9.30
2016,03,18,12,19,9.30
2016,03,18,12,20,9.40
2016,03,18,12,21,9.40
2016,03,18,12,22,9.50
2016,03,18,12,23,9.60
2016,03,18,12,24,9.60
2016,03,18,12,25,9.60
2016,03,18,12,26,9.60
2016,03,18,12,27,9.50
2016,03,18,12,28,9.50
2016,03,18,12,29,9.50
2016,03,18,12,30,9.60
2016,03,18,12,31,9.70
2016,03,18,12,32,9.60
2016,03,18,12,33,9.60
2016,03,18,12,34,9.60
2016,03,18,12,35,9.60
2016,03,18,12,36,9.60
2016,03,18,12,37,9.60
2016,03,18,12,38,9.70
2016,03,18,12,39,9.70
2016,03,18,12,40,9.70
2016,03,18,12,41,9.70
2016,03,18,12,42,9.80
2016,03,18,12,43,9.80
2016,03,18,12,44,9.80
2016,03,18,12,45,9.80
2016,03,18,12,46,9.80
2016,03,18,12,47,9.80
2016,03,18,12,48,9.80
2016,03,18,12,49,9.80
2016,03,18,12,50,9.80
2016,03,18,12,51,9.90
2016,03,18,12,52,9.90
2016,03,18,12,53,9.90
2016,03,18,12,54,9.90
2016,03,18,12,55,10.00
2016,03,18,12,56,10.00
2016,03,18,12,57,10.10
2016,03,18,12,58,10.10
2016,03,18,12,59,10.00
2016,03,18,13,00,10.00
2016,03,18,13,01,9.90
2016,03,18,13,02,10.00
2016,03,18,13,03,10.00
2016,03,18,13,04,10.10
2016,03,18,13,05,10.00
2016,03,18,13,06,10.00
2016,03,18,13,07,10.00
2016,03,18,13,08,10.00
2016,03,18,13,09,10.00
2016,03,18,13,10,10.00
2016,03,18,13,11,10.00
2016,03,18,13,12,10.00
2016,03,18,13,13,9.90
2016,03,18,13,14,9.90
2016,03,18,13,15,10.00
2016,03,18,13,16,10.10
2016,03,18,13,17,10.20
2016,03,18,13,18,10.20
2016,03,18,13,19,10.20
2016,03,18,13,20,10.20
2016,03,18,13,21,10.30
2016,03,18,13,22,10.30
2016,03,18,13,23,10.30
2016,03,18,13,24,10.30
2016,03,18,13,25,10.40
2016,03,18,13,26,10.60
2016,03,18,13,27,10.70
2016,03,18,13,28,10.80
2016,03,18,13,29,10.80
2016,03,18,13,30,10.80
2016,03,18,13,31,10.70
2016,03,18,13,32,10.60
2016,03,18,13,33,10.60
2016,03,18,13,34,10.70
2016,03,18,13,35,10.70
2016,03,18,13,36,10.80
2016,03,18,13,37,10.80
2016,03,18,13,38,10.80
2016,03,18,13,39,10.80
2016,03,18,13,40,10.80
2016,03,18,13,41,10.90
2016,03,18,13,42,11.00
2016,03,18,13,43,11.00
2016,03,18,13,44,11.00
2016,03,18,13,45,11.00
2016,03,18,13,46,11.00
2016,03,18,13,47,11.10
2016,03,18,13,48,11.10
2016,03,18,13,49,11.00
2016,03,18,13,50,10.80
2016,03,18,13,51,10.70
2016,03,18,13,52,10.70
2016,03,18,13,53,10.70
2016,03,18,13,54,10.80
2016,03,18,13,55,10.80
2016,03,18,13,56,10.80
2016,03,18,13,57,10.80
2016,03,18,13,58,10.70
2016,03,18,13,59,10.70
2016,03,18,14,00,10.70
2016,03,18,14,01,10.60
2016,03,18,14,02,10.70
2016,03,18,14,03,10.70
2016,03,18,14,04,10.80
2016,03,18,14,05,10.80
2016,03,18,14,06,10.80
2016,03,18,14,07,10.70
2016,03,18,14,08,10.70
2016,03,18,14,09,10.70
2016,03,18,14,10,10.70
2016,03,18,14,11,10.80
2016,03,18,14,12,10.80
2016,03,18,14,13,10.90
2016,03,18,14,14,10.90
2016,03,18,14,15,11.00
2016,03,18,14,16,11.00
2016,03,18,14,17,11.00
2016,03,18,14,18,11.00
2016,03,18,14,19,11.10
2016,03,18,14,20,11.10
2016,03,18,14,21,11.10
2016,03,18,14,22,11.10
2016,03,18,14,23,11.00
2016,03,18,14,24,11.00
2016,03,18,14,25,11.10
2016,03,18,14,26,11.10
2016,03,18,14,27,11.10
2016,03,18,14,28,11.20
2016,03,18,14,29,11.20
2016,03,18,14,30,11.20
2016,03,18,14,31,11.20
2016,03,18,14,32,11.40
2016,03,18,14,33,11.40
2016,03,18,14,34,11.50
2016,03,18,14,35,11.50
2016,03,18,14,36,11.50
2016,03,18,14,37,11.60
2016,03,18,14,38,11.60
2016,03,18,14,39,11.60
2016,03,18,14,40,11.60
2016,03,18,14,41,11.60
2016,03,18,14,42,11.60
2016,03,18,14,43,11.60
2016,03,18,14,44,11.80
2016,03,18,14,45,11.90
2016,03,18,14,46,11.90
2016,03,18,14,47,11.80
2016,03,18,14,48,11.80
2016,03,18,14,49,11.90
2016,03,18,14,50,11.90
2016,03,18,14,51,12.00
2016,03,18,14,52,12.10
2016,03,18,14,53,12.10
2016,03,18,14,54,12.10
2016,03,18,14,55,12.00
2016,03,18,14,56,12.00
2016,03,18,14,57,11.90
2016,03,18,14,58,11.90
2016,03,18,14,59,11.90
2016,03,18,15,00,11.90
2016,03,18,15,01,11.80
2016,03,18,15,02,11.80
2016,03,18,15,03,11.80
2016,03,18,15,04,11.80
2016,03,18,15,05,11.70
2016,03,18,15,06,11.70
2016,03,18,15,07,11.70
2016,03,18,15,08,11.60
2016,03,18,15,09,11.60
2016,03,18,15,10,11.60
2016,03,18,15,11,11.70
2016,03,18,15,12,11.70
2016,03,18,15,13,11.70
2016,03,18,15,14,11.80
2016,03,18,15,15,11.80
2016,03,18,15,16,11.80
2016,03,18,15,17,11.70
2016,03,18,15,18,11.70
2016,03,18,15,19,11.70
2016,03,18,15,20,11.70
2016,03,18,15,21,11.70
2016,03,18,15,22,11.70
2016,03,18,15,23,11.70
2016,03,18,15,24,11.70
2016,03,18,15,25,11.70
2016,03,18,15,26,11.70
2016,03,18,15,27,11.70
2016,03,18,15,28,11.80
2016,03,18,15,29,11.80
2016,03,18,15,30,11.80
2016,03,18,15,31,11.80
2016,03,18,15,32,11.70
2016,03,18,15,33,11.80
2016,03,18,15,34,11.80
2016,03,18,15,35,11.80
2016,03,18,15,36,11.80
2016,03,18,15,37,11.70
2016,03,18,15,38,11.70
2016,03,18,15,39,11.70
2016,03,18,15,40,11.70
2016,03,18,15,41,11.70
2016,03,18,15,42,11.80
2016,03,18,15,43,11.80
2016,03,18,15,44,11.90
2016,03,18,15,45,11.90
2016,03,18,15,46,11.90
2016,03,18,15,47,11.90
2016,03,18,15,48,11.80
2016,03,18,15,49,11.80
2016,03,18,15,50,11.80
2016,03,18,15,51,11.80
2016,03,18,15,52,11.80
2016,03,18,15,53,11.80
2016,03,18,15,54,11.80
2016,03,18,15,55,11.80
2016,03,18,15,56,11.80
2016,03,18,15,57,11.80
2016,03,18,15,58,11.80
2016,03,18,15,59,11.80
2016,03,18,16,00,11.80
2016,03,18,16,01,11.80
2016,03,18,16,02,11.80
2016,03,18,16,03,11.80
2016,03,18,16,04,11.80
2016,03,18,16,05,11.90
2016,03,18,16,06,11.90
2016,03,18,16,07,11.90
2016,03,18,16,08,11.80
2016,03,18,16,09,11.80
2016,03,18,16,10,11.80
2016,03,18,16,11,11.80
2016,03,18,16,12,11.80
2016,03,18,16,13,11.80
2016,03,18,16,14,11.80
2016,03,18,16,15,11.80
2016,03,18,16,16,11.80
2016,03,18,16,17,11.80
2016,03,18,16,18,11.80
2016,03,18,16,19,11.80
2016,03,18,16,20,11.80
2016,03,18,16,21,11.80
2016,03,18,16,22,11.80
2016,03,18,16,23,11.80
2016,03,18,16,24,11.80
2016,03,18,16,25,11.90
2016,03,18,16,26,11.90
2016,03,18,16,27,11.90
2016,03,18,16,28,11.90
2016,03,18,16,29,11.90
2016,03,18,16,30,11.90
2016,03,18,16,31,12.00
2016,03,18,16,32,12.00
2016,03,18,16,33,12.00
2016,03,18,16,34,12.00
2016,03,18,16,35,12.10
2016,03,18,16,36,12.10
2016,03,18,16,37,12.00
2016,03,18,16,38,12.00
2016,03,18,16,39,12.00
2016,03,18,16,40,12.00
2016,03,18,16,41,12.10
2016,03,18,16,42,12.10
2016,03,18,16,43,12.10
2016,03,18,16,44,12.10
2016,03,18,16,45,12.20
2016,03,18,16,46,12.30
2016,03,18,16,47,12.40
2016,03,18,16,48,12.40
2016,03,18,16,49,12.50
2016,03,18,16,50,12.50
2016,03,18,16,51,12.40
2016,03,18,16,52,12.40
2016,03,18,16,53,12.30
2016,03,18,16,54,12.30
2016,03,18,16,55,12.30
2016,03,18,16,56,12.20
2016,03,18,16,57,12.20
2016,03,18,16,58,12.20
2016,03,18,16,59,12.10
2016,03,18,17,00,12.20
2016,03,18,17,01,12.20
2016,03,18,17,02,12.20
2016,03,18,17,03,12.20
2016,03,18,17,04,12.20
2016,03,18,17,05,12.20
2016,03,18,17,06,12.20
2016,03,18,17,07,12.20
2016,03,18,17,08,12.30
2016,03,18,17,09,12.30
2016,03,18,17,10,12.30
2016,03,18,17,11,12.40
2016,03,18,17,12,12.40
2016,03,18,17,13,12.40
2016,03,18,17,14,12.50
2016,03,18,17,15,12.50
2016,03,18,17,16,12.50
2016,03,18,17,17,12.50
2016,03,18,17,18,12.50
2016,03,18,17,19,12.50
2016,03,18,17,20,12.50
2016,03,18,17,21,12.50
2016,03,18,17,22,12.40
2016,03,18,17,23,12.40
2016,03,18,17,24,12.40
2016,03,18,17,25,12.30
2016,03,18,17,26,12.40
2016,03,18,17,27,12.40
2016,03,18,17,28,12.40
2016,03,18,17,29,12.40
2016,03,18,17,30,12.30
2016,03,18,17,31,12.30
2016,03,18,17,32,12.30
2016,03,18,17,33,12.30
2016,03,18,17,34,12.30
2016,03,18,17,35,12.30
2016,03,18,17,36,12.30
2016,03,18,17,37,12.30
2016,03,18,17,38,12.30
2016,03,18,17,39,12.20
2016,03,18,17,40,12.20
2016,03,18,17,41,12.30
2016,03,18,17,42,12.30
2016,03,18,17,43,12.30
2016,03,18,17,44,12.30
2016,03,18,17,45,12.30
2016,03,18,17,46,12.30
2016,03,18,17,47,12.30
2016,03,18,17,48,12.30
2016,03,18,17,49,12.20
2016,03,18,17,50,12.20
2016,03,18,17,51,12.20
2016,03,18,17,52,12.20
2016,03,18,17,53,12.20